{"data":{"norad_id":38551,"epoch":"2026-09-20T03:56:22.424352Z","epoch_age_seconds":47358,"freshness":"FRESH","line1":"1 38551U 12035A   26263.16414843 -.00000080  00000+0  00000+0 0  9990","line2":"2 38551   0.0167 136.9451 0002063  41.4918 132.6292  1.00271772 52015","mean_motion":1.00271772,"eccentricity":0.0002063,"inclination_deg":0.0167,"raan_deg":136.9451,"arg_perigee_deg":41.4918,"mean_anomaly_deg":132.6292,"bstar":0,"rev_number":5201,"period_min":1436.097090216,"perigee_km":35777.900020608,"apogee_km":35795.297190518,"semimajor_km":42164.735605563,"source":"CELESTRAK","updated_at":"2026-09-20T09:00:35.175487Z"}}